Home > Weather > Saint-Denis > Past weeks

Flag for France Past Weather in Saint-Denis, Île-de-France, France — Yesterday and Last 2 Weeks

Now
81 °F

Passing clouds.


Feels Like: 81 °F
Forecast: 64 / 77 °F
Wind: 7 mph from Northwest

Location: Paris Le Bourget Airport

Current Time: Jul 24, 2016 at 4:48:07 PM

Latest Report: Jul 24, 2016 at 4:30 PM


Visibility: N/A

Pressure: 30.12 "Hg

Humidity: 42%

Dew Point: 55 °F

Location of Saint-DenisLocation

Past Weather in Saint-Denis — Graph

°F

Saint-Denis Temperature Yesterday

Maximum temperature yesterday: 82 °F (at 5:00 PM)
Minimum temperature yesterday: 61 °F (at 5:30 AM)
Average temperature yesterday: 71 °F

High & Low Weather Summary for the Past Weeks

 TemperatureHumidityPressure
High93 °F (Jul 19, 3:30 PM)94% (Jul 12, 11:30 PM)30.36 "Hg (Jul 12, 11:30 PM)
Low52 °F (Jul 15, 4:30 AM)30% (Jul 19, 7:00 PM)29.83 "Hg (Jul 10, 5:00 PM)
Average70 °F62%30.08 "Hg
* Reported Jul 9 3:00 PM — Jul 24 3:30 PM, Saint-Denis, Weather by CustomWeather, © 2016

Note: Actual official high and low records may vary slightly from our data, if they occured in-between our weather recording intervals... More about our weather records

Advertising

Saint-Denis Weather History for the Previous 24 Hours

Scroll right to see more
 ConditionsComfort  
Time TempWeatherWind HumidityBarometerVisibility
3:30 PM
Sun, Jul 24
81 °FPassing clouds.7 mph42%30.12 "HgN/A
3:00 PM79 °FPassing clouds.7 mph45%30.12 "HgN/A
2:30 PM79 °FSunny.7 mph45%30.15 "Hg10 mi
2:00 PM79 °FPassing clouds.9 mph45%30.15 "HgN/A
1:30 PM77 °FPartly sunny.8 mph47%30.15 "HgN/A
1:00 PM75 °FScattered clouds.8 mph50%30.15 "HgN/A
12:30 PM75 °FPassing clouds.7 mph54%30.15 "HgN/A
12:00 PM73 °FPassing clouds.9 mph53%30.15 "HgN/A
11:30 AM73 °FPassing clouds.5 mph53%30.15 "HgN/A
11:00 AM72 °FSunny.5 mph57%30.15 "Hg10 mi
10:30 AM72 °FSunny.2 mph57%30.18 "Hg10 mi
10:00 AM70 °FSunny.1 mph57%30.18 "Hg10 mi
9:30 AM68 °FSunny.3 mph60%30.18 "Hg10 mi
9:00 AM66 °FSunny.2 mph64%30.15 "Hg10 mi
8:30 AM64 °FSunny.3 mph73%30.15 "Hg10 mi
8:00 AM63 °FSunny.3 mph77%30.15 "Hg10 mi
7:30 AM61 °FSunny.3 mph83%30.15 "Hg10 mi
7:00 AM59 °FClear.3 mph82%30.15 "Hg10 mi
6:30 AM59 °FClear.2 mph82%30.15 "Hg10 mi
6:00 AM59 °FClear.2 mph82%30.15 "Hg10 mi
5:30 AM59 °FClear.2 mph82%30.15 "Hg10 mi
5:00 AM59 °FClear.2 mph82%30.15 "Hg10 mi
4:30 AM59 °FClear.1 mph82%30.15 "Hg10 mi
4:00 AM61 °FClear.1 mph77%30.18 "Hg10 mi
3:30 AM61 °FClear.2 mph77%30.18 "Hg10 mi
3:00 AM61 °FClear.No wind77%30.18 "Hg10 mi
2:30 AM61 °FClear.3 mph77%30.18 "Hg10 mi
2:00 AM63 °FClear.No wind77%30.18 "Hg10 mi
1:30 AM64 °FClear.2 mph73%30.18 "Hg10 mi
1:00 AM64 °FPassing clouds.5 mph73%30.18 "HgN/A
12:30 AM66 °FClear.6 mph68%30.18 "Hg10 mi
12:00 AM66 °FClear.6 mph68%30.18 "Hg10 mi
11:30 PM
Sat, Jul 23
68 °FPassing clouds.6 mph64%30.15 "HgN/A
11:00 PM70 °FPassing clouds.6 mph64%30.15 "HgN/A
10:30 PM72 °FSunny.7 mph61%30.15 "Hg10 mi
10:00 PM72 °FSunny.8 mph61%30.12 "Hg10 mi
9:30 PM73 °FPassing clouds.9 mph57%30.12 "HgN/A
9:00 PM75 °FSunny.10 mph54%30.12 "Hg10 mi
8:30 PM77 °FPassing clouds.12 mph51%30.09 "HgN/A
8:00 PM77 °FPassing clouds.10 mph51%30.09 "HgN/A
7:30 PM79 °FSunny.10 mph48%30.09 "Hg10 mi
7:00 PM81 °FPassing clouds.12 mph45%30.09 "HgN/A
6:30 PM81 °FPassing clouds.9 mph42%30.09 "HgN/A
6:00 PM81 °FPassing clouds.8 mph42%30.09 "HgN/A
5:30 PM81 °FSunny.10 mph42%30.09 "Hg10 mi
5:00 PM82 °FSunny.6 mph40%30.09 "Hg10 mi
4:30 PM81 °FPassing clouds.9 mph39%30.09 "HgN/A
4:00 PM81 °FPassing clouds.9 mph42%30.12 "HgN/A
Weather by CustomWeather, © 2016

See weather overviewHow to use our weather pages